Terug naar catalogus

FLYING LAPTOP

ActiefWetenschapSSO
NORAD 42831·PAYLOAD·🇩🇪 Germany

Gelanceerd Jul 14, 2017 vanaf Baikonur Cosmodrome

Loading…

Volgende Passages (komende 24 uur)

TLE

VersSource: Space-Track

Epoch: Sep 14, 2026, 15:00 UTC

1 42831U 17042G   26257.62553725  .00001957  00000-0  15508-3 0  9993
2 42831  97.5006  49.9555 0016414 174.9593 185.1800 15.01589511499874

Volg FLYING LAPTOP in realtime met AllMySat

Download on the App Store